Location: Krakow
(50.0830°N, 19.9170°E)
Time: 20:46:54
(UTC+01:00)

Altair - Pass Details

Date: 09 December 2023
Orbit: 1501 x 1682 km, 47.2° (Epoch: 03 March)

Event Time Altitude Azimuth Distance (km) Brightness Sun altitude
Rises 08:30:05 0° 250° (WSW) 4,832 9.9 6.7°
Reaches altitude 10° 08:33:15 10° 248° (WSW) 3,823 9.4 7.0°
Maximum altitude 08:42:51 71° 167° (SSE) 1,637 8.1 8.0°
Drops below altitude 10° 08:52:07 10° 86° (E) 3,693 10.1 8.9°
Sets 08:55:07 0° 85° (E) 4,660 10.5 9.2°
